TA2DMX-13 Weather Reports


time (UTC)temp
F
wind
direction
speed
knots
gust
knots
rain 1hr
in
rain 24hr
in
rain mn
in
humidity
%
barometer
mb
20260906083059 81 270 0.0 0.0 0.00 0.00 0.00 10 1011.6
20260906081557 81 315 0.0 0.0 0.00 0.00 0.00 10 1011.6
20260906080055 80 270 0.0 0.0 0.00 0.00 0.00 10 1011.7
20260906074552 79 225 0.0 0.0 0.00 0.00 0.00 10 1011.7
20260906073049 78 315 0.0 0.0 0.00 0.00 0.00 10 1011.7
20260906071548 80 270 0.0 0.0 0.00 0.00 0.00 10 1011.2
20260906070045 80 270 0.0 0.0 0.00 0.00 0.00 10 1011.1
20260906064543 88 225 0.0 0.0 0.00 0.00 0.00 10 1010.9
20260906054532 87 270 0.0 0.0 0.00 0.00 0.00 10 1010.6
20260906053027 76 270 0.0 0.0 0.00 0.00 0.00 10 1010.9
20260906051525 82 0 0.0 0.0 0.00 0.00 0.00 10 1010.5
20260906050025 88 270 0.0 0.0 0.00 0.00 0.00 10 1010.4
20260906044521 71 315 0.0 0.0 0.00 0.00 0.00 10 1011.1
20260906041514 69 315 0.0 0.0 0.00 0.00 0.00 10 1011.0
20260906034509 69 315 0.0 0.0 0.00 0.00 0.00 10 1010.6
20260906033007 69 315 0.0 0.0 0.00 0.00 0.00 10 1010.4
20260906031504 68 270 0.0 0.0 0.00 0.00 0.00 10 1010.5
20260906025947 68 270 0.0 0.0 0.00 0.00 0.00 10 1010.4
20260906024343 69 270 0.0 0.0 0.00 0.00 0.00 10 1010.5
20260906022739 69 270 0.0 0.0 0.00 0.00 0.00 10 1010.1
20260906021136 69 270 0.0 0.0 0.00 0.00 0.00 10 1010.2
20260906015534 69 270 0.0 0.0 0.00 0.00 0.00 10 1010.2
20260906013930 69 270 0.0 0.0 0.00 0.00 0.00 10 1010.3
20260906012328 70 270 0.0 0.0 0.00 0.00 0.00 10 1010.2
20260906010725 69 0 0.0 0.0 0.00 0.00 0.00 10 1010.1
20260906005122 69 315 0.0 0.0 0.00 0.00 0.00 10 1010.1
20260906003519 70 270 0.0 0.0 0.00 0.00 0.00 10 1010.0
20260906000413 70 315 0.0 0.0 0.00 0.00 0.00 10 1010.0
20260905234810 71 270 0.0 0.0 0.00 0.00 0.00 10 1009.9
20260905233207 71 0 0.0 0.0 0.00 0.00 0.00 10 1010.1
20260905224600 72 270 0.0 0.0 0.00 0.00 0.00 10 1010.0
20260905223057 72 315 0.0 0.0 0.00 0.00 0.00 10 1010.1
20260905221554 72 225 0.0 0.0 0.00 0.00 0.00 10 1010.2
20260905220052 72 270 0.0 0.0 0.00 0.00 0.00 10 1010.2
20260905214548 73 270 0.0 0.0 0.00 0.00 0.00 10 1010.3
20260905213046 73 270 0.0 0.0 0.00 0.00 0.00 10 1010.4
20260905211543 73 0 0.0 0.0 0.00 0.00 0.00 10 1010.4
20260905210041 73 270 0.0 0.0 0.00 0.00 0.00 10 1010.4
20260905204538 73 270 0.0 0.0 0.00 0.00 0.00 10 1010.6
20260905203036 73 0 0.0 0.0 0.00 0.00 0.00 10 1010.7
20260905200031 74 225 0.0 0.0 0.00 0.00 0.00 10 1010.7
20260905194528 74 0 0.0 0.0 0.00 0.00 0.00 10 1010.8
20260905191522 74 225 0.0 0.0 0.00 0.00 0.00 10 1010.7
20260905190021 75 225 0.0 0.0 0.00 0.00 0.00 10 1010.7
20260905184517 75 270 0.0 0.0 0.00 0.00 0.00 10 1010.7
20260905183015 76 0 0.0 0.0 0.00 0.00 0.00 10 1010.7
20260905181511 75 225 0.0 0.0 0.00 0.00 0.00 10 1010.8
20260905180009 76 270 0.0 0.0 0.00 0.00 0.00 10 1010.6
20260905174507 76 45 0.0 0.0 0.00 0.00 0.00 10 1010.4
20260905173005 77 315 0.0 0.0 0.00 0.00 0.00 10 1010.1
20260905171440 77 315 0.0 0.0 0.00 0.00 0.00 10 1010.0
20260905165836 78 315 0.0 0.0 0.00 0.00 0.00 10 1009.8
20260905164232 79 270 0.0 0.0 0.00 0.00 0.00 10 1009.6
20260905162630 79 225 0.0 0.0 0.00 0.00 0.00 10 1009.4
20260905161027 81 270 0.0 0.0 0.00 0.00 0.00 93 1009.5
20260905155424 81 0 0.0 0.0 0.00 0.00 0.00 83 1009.5
20260905153822 82 0 0.0 0.0 0.00 0.00 0.00 78 1009.5
20260905152218 82 270 0.0 0.0 0.00 0.00 0.00 70 1009.5
20260905150615 83 270 0.0 0.0 0.00 0.00 0.00 67 1009.5
20260905145013 83 270 0.0 0.0 0.00 0.00 0.00 63 1009.6
20260905143409 86 270 0.0 0.0 0.00 0.00 0.00 62 1009.5
20260905141807 84 270 0.0 0.0 0.00 0.00 0.00 62 1009.5
20260905140203 84 315 0.0 0.0 0.00 0.00 0.00 66 1009.6
20260905134601 85 270 0.0 0.0 0.00 0.00 0.00 62 1009.7
20260905133057 85 270 0.0 0.0 0.00 0.00 0.00 59 1009.8
20260905131555 85 225 0.0 0.0 0.00 0.00 0.00 57 1009.8
20260905130052 85 270 0.0 0.0 0.00 0.00 0.00 63 1009.9
20260905124551 86 270 0.0 0.0 0.00 0.00 0.00 69 1010.0
20260905123048 85 225 0.0 0.0 0.00 0.00 0.00 68 1010.1
20260905121546 86 270 0.0 0.0 0.00 0.00 0.00 68 1010.1
20260905120043 86 270 0.0 0.0 0.00 0.00 0.00 65 1010.2
20260905113038 88 225 0.0 0.0 0.00 0.00 0.00 54 1010.3
20260905111535 89 270 0.0 0.0 0.00 0.00 0.00 43 1010.7
20260905110032 93 225 0.0 0.0 0.00 0.00 0.00 38 1010.7
20260905104530 95 315 0.0 0.0 0.00 0.00 0.00 39 1010.8
20260905103027 98 270 0.0 0.0 0.00 0.00 0.00 41 1010.7
20260905101524 92 0 0.0 0.0 0.00 0.00 0.00 52 1010.8
20260905094521 92 270 0.0 0.0 0.00 0.00 0.00 63 1010.8
20260905093020 96 270 0.0 0.0 0.00 0.00 0.00 55 1010.9
20260905090015 86 315 0.0 0.0 0.00 0.00 0.00 91 1011.3
20260905084510 82 225 0.0 0.0 0.00 0.00 0.00 10 1011.4